This demonstration page uses our WeatherBlox Daily Observations layout. Learn more.

Left ArrowRight Arrow

Hourly Observations for July 14, 2022

Temp ( °F °C ) Dew Point ( °F °C ) Humidity (%) Winds ( mph kmh ) Pressure ( in mb ) Visibility ( mi km ) Precip ( " mm )
12:53 am 00:53 Mostly Clear 92 33.3 68 20 46 46 E 7 11 29.91 1013 10 16 0.00 0.00
1:53 am 01:53 Mostly Clear 90 32.2 68 20 48 48 E 9 15 29.92 1013 10 16 0.00 0.00
2:53 am 02:53 Mostly Clear 90 32.2 67 19.4 47 47 SE 10 17 29.92 1013 10 16 0.00 0.00
3:53 am 03:53 Mostly Clear 88 31.1 68 20 52 52 SE 9 15 29.93 1014 10 16 0.00 0.00
4:53 am 04:53 Mostly Clear 86 30 69 20.6 57 57 SSE 10 17 29.94 1014 10 16 0.00 0.00
5:53 am 05:53 Mostly Clear 85 29.4 70 21.1 61 61 S 7 11 29.95 1014 10 16 0.00 0.00
6:53 am 06:53 Mostly Sunny 85 29.4 71 21.7 63 63 S 7 11 29.96 1015 10 16 0.00 0.00
7:53 am 07:53 Mostly Sunny 85 29.4 71 21.7 63 63 S 7 11 29.97 1015 10 16 0.00 0.00
8:53 am 08:53 Mostly Cloudy 88 31.1 71 21.7 57 57 S 7 11 29.99 1016 10 16 0.00 0.00
9:53 am 09:53 Partly Cloudy 92 33.3 71 21.7 51 51 SSW 8 13 29.98 1015 10 16 0.00 0.00
10:53 am 10:53 Mostly Cloudy 93 33.9 71 21.7 49 49 E 10 17 30.01 1016 10 16 0.00 0.00
11:22 am 11:22 Mostly Cloudy with Thunderstorms 90 32 72 22 55 55 ESE 20 31 30.01 1016 10 16 0.00 0.00
11:53 am 11:53 Mostly Cloudy with Thunderstorms 83 28.3 73 22.8 72 72 SE 20 31 30.02 1017 10 16 0.00 0.00
12:17 pm 12:17 Mostly Cloudy 81 27.2 71 21.7 72 72 S 20 31 30.03 1017 10 16 0.00 0.00
12:53 pm 12:53 Mostly Cloudy 79 26.1 68 20 69 69 SE 14 22 30.03 1017 10 16 0.00 0.00
1:53 pm 13:53 Sunny 81 27.2 69 20.6 67 67 SE 12 19 30.03 1017 10 16 0.00 0.00
2:53 pm 14:53 Mostly Cloudy 83 28.3 67 19.4 59 59 S 15 24 30.01 1016 10 16 0.00 0.00
3:53 pm 15:53 Mostly Cloudy 87 30.6 64 17.8 46 46 S 9 15 29.98 1015 10 16 0.00 0.00
4:53 pm 16:53 Mostly Cloudy 92 33.3 60 15.6 34 34 S 7 11 29.96 1014 10 16 0.00 0.00
5:01 pm 17:01 Mostly Cloudy 93 33.9 60 15.6 33 33 SSE 7 11 29.94 1014 10 16 0.00 0.00
5:53 pm 17:53 Mostly Cloudy 94 34.4 59 15 31 31 S 7 11 29.96 1014 10 16 0.00 0.00
6:53 pm 18:53 Mostly Cloudy 93 33.9 57 13.9 30 30 SE 8 13 29.96 1015 10 16 0.00 0.00
7:53 pm 19:53 Partly Cloudy 90 32.2 62 16.7 39 39 SE 10 17 29.98 1015 10 16 0.00 0.00
8:53 pm 20:53 Partly Cloudy 88 31.1 62 16.7 42 42 SE 8 13 29.99 1016 10 16 0.00 0.00
9:53 pm 21:53 Partly Cloudy 87 30.6 63 17.2 45 45 SSE 5 7 30.01 1016 10 16 0.00 0.00
10:53 pm 22:53 Clear 85 29.4 64 17.8 50 50 E 5 7 30.02 1017 10 16 0.00 0.00
11:53 pm 23:53 Partly Cloudy 83 28.3 65 18.3 55 55 ESE 5 7 30.03 1017 10 16 0.00 0.00

Powered by AerisWeather